When you browse on this site, cookies collect data to enhance your experience and personalize the content and advertising you see.
Visit our Privacy Policy to learn more. By continuing to use the site, you agree to this use of cookies and data.
  • In Lithuania
  • List of Countries
  • For 7 days
  • Water Temperature
  • Satellite Maps
  • Weather Map
  • Weather Widgets
  • user-avatar
    Login

    Hourly Weather Przyborow

    Today, 23 April, Tuesday

    Time Temperature Precipitation Wind Pressure Humidity
    00:00 +9°C° 0 mm 6 mps 753 mmHg 59%
    01:00 +8°C° 0 mm 7 mps 753 mmHg 58%
    02:00 +8°C° 0 mm 7 mps 753 mmHg 57%
    03:00 +6°C° 0 mm 7 mps 753 mmHg 56%
    04:00 +6°C° 0 mm 8 mps 752 mmHg 55%
    05:00 +7°C° 0 mm 8 mps 752 mmHg 55%
    06:00 +7°C° 0 mm 9 mps 752 mmHg 54%
    07:00 +8°C° 0 mm 9 mps 752 mmHg 53%
    08:00 +9°C° 0 mm 10 mps 752 mmHg 49%
    09:00 +12°C° 0 mm 10 mps 752 mmHg 46%
    10:00 +13°C° 0 mm 11 mps 751 mmHg 42%
    11:00 +14°C° 0 mm 11 mps 751 mmHg 42%
    12:00 +16°C° 0 mm 11 mps 750 mmHg 42%
    13:00 +17°C° 0 mm 11 mps 750 mmHg 42%
    14:00 +17°C° 0 mm 11 mps 750 mmHg 42%
    15:00 +17°C° 0 mm 10 mps 749 mmHg 43%
    16:00 +17°C° 0 mm 10 mps 749 mmHg 44%
    17:00 +16°C° 0 mm 9 mps 749 mmHg 46%
    18:00 +15°C° 0 mm 8 mps 749 mmHg 49%
    19:00 +13°C° 0 mm 8 mps 749 mmHg 51%
    20:00 +12°C° 0 mm 8 mps 749 mmHg 51%
    21:00 +12°C° 0 mm 8 mps 749 mmHg 52%
    22:00 +12°C° 0 mm 8 mps 749 mmHg 52%
    23:00 +11°C° 0 mm 8 mps 749 mmHg 53%

    Tomorrow, 24 April, Wednesday

    Time Temperature Precipitation Wind Pressure Humidity
    00:00 +11°C° 0 mm 7 mps 749 mmHg 54%
    01:00 +11°C° 0 mm 7 mps 748 mmHg 54%
    02:00 +11°C° 0 mm 7 mps 748 mmHg 56%
    03:00 +10°C° 0 mm 7 mps 748 mmHg 58%
    04:00 +10°C° 0 mm 7 mps 748 mmHg 60%
    05:00 +10°C° 0 mm 7 mps 748 mmHg 64%
    06:00 +10°C° 0 mm 7 mps 748 mmHg 67%
    07:00 +11°C° 0 mm 7 mps 748 mmHg 71%
    08:00 +12°C° 0 mm 7 mps 748 mmHg 68%
    09:00 +15°C° 0 mm 7 mps 748 mmHg 65%
    10:00 +16°C° 0 mm 7 mps 748 mmHg 62%
    11:00 +17°C° 0 mm 7 mps 748 mmHg 61%
    12:00 +17°C° 0 mm 7 mps 748 mmHg 60%
    13:00 +19°C° 0 mm 6 mps 748 mmHg 58%
    14:00 +19°C° 0 mm 5 mps 748 mmHg 60%
    15:00 +19°C° 0 mm 5 mps 748 mmHg 61%
    16:00 +19°C° 0 mm 4 mps 748 mmHg 62%
    17:00 +18°C° 0 mm 4 mps 748 mmHg 65%
    18:00 +18°C° 0 mm 4 mps 748 mmHg 68%
    19:00 +17°C° 0 mm 4 mps 748 mmHg 71%
    20:00 +15°C° 0 mm 4 mps 748 mmHg 73%
    21:00 +14°C° 0 mm 5 mps 748 mmHg 74%
    22:00 +14°C° 0 mm 5 mps 749 mmHg 76%
    23:00 +14°C° 0 mm 5 mps 748 mmHg 75%

    Day after tomorrow, 25 April, Thursday

    Time Temperature Precipitation Wind Pressure Humidity
    00:00 +14°C° 0 mm 5 mps 748 mmHg 73%
    01:00 +14°C° 0 mm 5 mps 748 mmHg 72%
    02:00 +13°C° 0 mm 5 mps 748 mmHg 75%
    03:00 +13°C° 0 mm 4 mps 748 mmHg 77%
    04:00 +12°C° 0 mm 4 mps 748 mmHg 80%
    05:00 +13°C° 0 mm 4 mps 749 mmHg 78%
    06:00 +14°C° 0 mm 5 mps 749 mmHg 76%
    07:00 +15°C° 0 mm 5 mps 749 mmHg 73%
    08:00 +17°C° 0 mm 5 mps 749 mmHg 69%
    09:00 +20°C° 0 mm 4 mps 749 mmHg 64%
    10:00 +21°C° 0 mm 4 mps 749 mmHg 59%
    11:00 +22°C° 0 mm 4 mps 749 mmHg 56%
    12:00 +23°C° 0 mm 4 mps 749 mmHg 53%
    13:00 +25°C° 0 mm 4 mps 749 mmHg 51%
    14:00 +25°C° 0 mm 4 mps 749 mmHg 50%
    15:00 +25°C° 0 mm 3 mps 749 mmHg 50%
    16:00 +25°C° 0 mm 3 mps 749 mmHg 50%
    17:00 +24°C° 0 mm 3 mps 749 mmHg 55%
    18:00 +21°C° 0 mm 3 mps 748 mmHg 61%
    19:00 +19°C° 0 mm 2 mps 748 mmHg 66%
    20:00 +18°C° 0 mm 2 mps 748 mmHg 68%
    21:00 +18°C° 0 mm 3 mps 748 mmHg 69%
    22:00 +17°C° 0 mm 3 mps 748 mmHg 71%
    23:00 +17°C° 0 mm 3 mps 748 mmHg 71%

    26 April, Friday

    Time Temperature Precipitation Wind Pressure Humidity
    00:00 +16°C° 0 mm 3 mps 748 mmHg 71%
    01:00 +15°C° 0 mm 4 mps 747 mmHg 71%
    02:00 +15°C° 0 mm 4 mps 747 mmHg 73%
    03:00 +15°C° 0 mm 4 mps 747 mmHg 74%
    04:00 +15°C° 0 mm 4 mps 747 mmHg 76%
    05:00 +16°C° 0 mm 5 mps 746 mmHg 73%
    06:00 +17°C° 0 mm 5 mps 746 mmHg 70%
    07:00 +19°C° 0 mm 6 mps 746 mmHg 67%
    08:00 +21°C° 0 mm 6 mps 746 mmHg 62%
    09:00 +22°C° 0 mm 6 mps 745 mmHg 57%
    10:00 +23°C° 0 mm 6 mps 745 mmHg 52%
    11:00 +24°C° 0 mm 6 mps 745 mmHg 50%
    12:00 +26°C° 0 mm 6 mps 745 mmHg 48%
    13:00 +27°C° 0 mm 5 mps 744 mmHg 46%
    14:00 +27°C° 0 mm 5 mps 744 mmHg 47%
    15:00 +27°C° 0 mm 4 mps 744 mmHg 48%
    16:00 +27°C° 0 mm 4 mps 744 mmHg 49%
    17:00 +25°C° 0.3 mm 4 mps 745 mmHg 57%
    18:00 +22°C° 0.3 mm 4 mps 745 mmHg 65%
    19:00 +20°C° 0.3 mm 3 mps 745 mmHg 74%
    20:00 +19°C° 0.3 mm 4 mps 745 mmHg 80%
    21:00 +18°C° 0.3 mm 4 mps 745 mmHg 86%
    22:00 +17°C° 0.3 mm 4 mps 746 mmHg 93%
    23:00 +17°C° 0.4 mm 4 mps 746 mmHg 93%

    27 April, Saturday

    Time Temperature Precipitation Wind Pressure Humidity
    00:00 +15°C° 0.4 mm 4 mps 746 mmHg 93%
    01:00 +15°C° 0.4 mm 5 mps 747 mmHg 93%
    02:00 +15°C° 0.4 mm 5 mps 747 mmHg 92%
    03:00 +14°C° 0.4 mm 5 mps 747 mmHg 91%
    04:00 +13°C° 0.4 mm 5 mps 748 mmHg 91%
    05:00 +13°C° 0.1 mm 5 mps 748 mmHg 88%
    06:00 +12°C° 0.1 mm 5 mps 748 mmHg 85%
    07:00 +10°C° 0.1 mm 6 mps 748 mmHg 82%
    08:00 +10°C° 0 mm 6 mps 749 mmHg 78%
    09:00 +11°C° 0 mm 6 mps 749 mmHg 75%
    10:00 +11°C° 0 mm 6 mps 749 mmHg 71%
    11:00 +13°C° 0.1 mm 5 mps 749 mmHg 70%
    12:00 +13°C° 0.1 mm 5 mps 749 mmHg 69%
    13:00 +14°C° 0.1 mm 4 mps 749 mmHg 68%
    14:00 +14°C° 0.4 mm 4 mps 749 mmHg 72%
    15:00 +13°C° 0.4 mm 3 mps 749 mmHg 76%
    16:00 +13°C° 0.4 mm 3 mps 749 mmHg 79%
    17:00 +12°C° 0.5 mm 3 mps 749 mmHg 83%
    18:00 +13°C° 0.5 mm 2 mps 750 mmHg 86%
    19:00 +12°C° 0.5 mm 2 mps 750 mmHg 90%
    20:00 +12°C° 0.3 mm 2 mps 750 mmHg 91%
    21:00 +12°C° 0.3 mm 2 mps 751 mmHg 91%
    22:00 +12°C° 0.3 mm 2 mps 751 mmHg 92%
    23:00 +11°C° 0.4 mm 3 mps 751 mmHg 91%

    28 April, Sunday

    Time Temperature Precipitation Wind Pressure Humidity
    00:00 +11°C° 0.4 mm 4 mps 752 mmHg 90%
    01:00 +9°C° 0.4 mm 6 mps 752 mmHg 89%
    02:00 +8°C° 0.4 mm 6 mps 752 mmHg 88%
    03:00 +8°C° 0.4 mm 6 mps 752 mmHg 87%
    04:00 +7°C° 0.4 mm 6 mps 753 mmHg 86%
    05:00 +7°C° 0 mm 6 mps 753 mmHg 84%
    06:00 +7°C° 0 mm 6 mps 754 mmHg 81%
    07:00 +7°C° 0 mm 6 mps 754 mmHg 79%
    08:00 +8°C° 0 mm 6 mps 755 mmHg 71%
    09:00 +9°C° 0 mm 6 mps 755 mmHg 63%
    10:00 +10°C° 0 mm 6 mps 755 mmHg 55%
    11:00 +10°C° 0 mm 5 mps 755 mmHg 51%
    12:00 +12°C° 0 mm 5 mps 754 mmHg 47%
    13:00 +13°C° 0 mm 5 mps 754 mmHg 43%
    14:00 +13°C° 0 mm 5 mps 754 mmHg 43%
    15:00 +13°C° 0 mm 4 mps 754 mmHg 43%
    16:00 +13°C° 0 mm 4 mps 754 mmHg 43%
    17:00 +12°C° 0 mm 3 mps 754 mmHg 48%
    18:00 +12°C° 0 mm 2 mps 754 mmHg 52%
    19:00 +10°C° 0 mm 1 mps 753 mmHg 56%
    20:00 +10°C° 0 mm 1 mps 754 mmHg 56%
    21:00 +9°C° 0 mm 1 mps 754 mmHg 56%
    22:00 +7°C° 0 mm 0 mps 754 mmHg 56%
    23:00 +7°C° 0 mm 0 mps 754 mmHg 58%
    Show more